ECMWFNIL_850_dewp_000.txt.gz
Dewpoint
-4 -1 0 1 1 1 0 0 1 1 1 1 1 1 2 2 2 2 2 2 3 3 3 2 2 3 4 5 5 6 9 11 10 10 11 11 11 11 10 9 9 9
-4 -1 1 2 2 2 1 1 1 1 -0 -0 0 1 2 2 2 2 3 3 3 3 3 3 2 3 3 4 5 6 9 11 11 10 11 11 11 11 10 9 9 9
-6 -2 0 1 2 1 1 1 1 1 1 0 0 1 1 2 2 2 2 3 3 3 4 3 3 2 2 3 4 5 8 11 11 11 11 11 11 11 11 9 9 9
-8 -6 -3 -1 0 1 1 1 1 1 1 1 1 1 1 2 3 3 2 3 3 3 4 4 3 2 2 2 2 3 6 9 11 11 11 11 11 11 11 10 10 10
-9 -9 -7 -5 -3 -1 -0 0 0 0 1 1 1 2 2 2 3 3 2 2 3 3 4 4 5 3 2 2 2 1 2 6 9 10 11 11 11 11 10 10 10 10
-10 -10 -10 -9 -6 -4 -2 -1 -0 0 0 0 0 1 2 2 3 3 3 3 3 3 3 4 4 4 3 2 2 2 0 1 5 9 10 11 11 11 11 10 10 10
-10 -11 -11 -10 -8 -6 -3 -2 -1 0 0 0 0 0 1 2 3 3 3 3 3 3 4 4 4 5 4 3 2 1 0 -2 0 5 8 10 11 11 10 11 10 10
-11 -11 -12 -10 -8 -5 -3 -2 -1 0 0 0 0 0 0 1 1 2 3 3 3 3 3 4 5 5 5 5 3 1 0 -2 -3 0 6 9 11 11 11 11 11 10
-12 -11 -12 -9 -6 -3 -2 -1 -0 0 0 0 0 0 1 1 1 1 2 2 3 3 3 4 5 5 5 5 4 2 0 -2 -5 -3 4 8 10 10 11 10 11 10
-12 -11 -8 -5 -2 -1 -0 -0 -0 0 0 0 0 0 1 1 1 1 1 1 2 3 3 3 4 5 5 5 5 4 1 -1 -3 -5 1 7 9 10 11 11 11 11
-11 -7 -3 -1 -0 -0 0 -0 -0 -0 -0 0 0 0 0 1 1 1 1 1 1 1 2 3 3 5 5 5 6 5 3 0 -2 -5 -3 5 9 10 11 11 11 10
-7 -3 -1 -0 -0 0 0 -0 -0 -0 -0 0 0 0 0 1 1 1 1 1 1 1 1 2 3 4 4 5 5 6 4 1 -0 -3 -4 3 8 10 11 11 11 10
-4 -1 -0 0 0 0 0 -0 -0 -0 -0 0 0 0 0 0 1 1 1 1 1 1 1 1 2 3 4 5 5 6 5 3 1 -0 -1 2 7 10 10 10 10 10
-2 -0 0 0 0 -0 -0 -0 -0 -0 -0 -0 -0 0 0 0 1 1 1 1 2 2 2 2 2 2 4 4 5 6 6 4 2 1 1 3 7 9 10 10 10 10
-1 0 0 0 0 -0 -0 -1 -1 -0 -1 -1 -1 -0 0 0 0 1 1 2 2 2 2 2 3 3 4 4 5 5 6 5 2 1 1 3 6 9 10 10 10 10
-0 0 0 -0 -0 -1 -1 -1 -1 -1 -1 -1 -1 -1 -1 -0 0 1 1 2 3 3 3 3 3 3 3 4 4 5 6 5 4 2 1 2 6 8 9 10 10 9
-0 -0 -0 -1 -1 -1 -1 -2 -2 -2 -2 -2 -2 -2 -1 -1 -0 0 1 2 3 3 4 4 4 3 3 4 4 5 6 6 5 4 3 3 6 8 9 10 10 9
-0 -0 -1 -1 -1 -1 -2 -2 -2 -3 -2 -2 -2 -2 -2 -1 -1 -0 1 2 3 3 4 4 3 3 3 3 4 5 6 7 6 5 4 5 6 8 9 10 10 9
-1 -1 -1 -1 -2 -2 -2 -2 -2 -2 -2 -2 -2 -2 -2 -1 -1 -0 0 2 3 3 3 3 3 3 3 3 4 5 6 7 7 6 5 6 7 9 9 10 10 9
-1 -2 -2 -2 -2 -2 -2 -2 -2 -2 -2 -2 -2 -2 -2 -2 -1 0 1 2 3 4 4 3 3 3 3 3 4 5 6 7 7 7 6 7 8 9 10 10 10 9
-2 -2 -2 -2 -2 -2 -2 -2 -2 -2 -3 -3 -3 -2 -2 -2 -1 1 1 2 3 4 5 4 3 3 3 3 4 6 6 7 8 7 7 7 8 9 10 10 9 8
-1 -2 -2 -2 -2 -2 -2 -2 -2 -3 -3 -3 -3 -2 -2 -1 -0 1 2 3 3 5 6 5 4 3 3 3 5 6 6 7 8 7 7 8 8 9 9 9 8 6
-1 -2 -3 -2 -2 -2 -2 -2 -3 -3 -3 -3 -3 -2 -2 -1 0 1 2 3 4 5 6 5 5 4 3 4 5 6 6 7 7 7 7 7 8 9 9 9 7 5
-2 -2 -3 -2 -2 -2 -2 -3 -3 -3 -3 -3 -2 -2 -2 -1 0 1 2 3 4 5 6 6 5 4 3 4 5 6 6 7 7 7 7 7 8 9 9 8 6 5
-2 -3 -3 -2 -2 -2 -3 -3 -3 -3 -3 -2 -2 -2 -2 -2 -1 -0 1 3 4 5 5 5 5 3 2 3 5 6 6 6 6 7 7 7 8 9 8 7 6 6
-2 -3 -3 -2 -2 -2 -3 -3 -3 -3 -3 -2 -2 -1 -1 -1 -1 0 2 3 4 5 5 5 4 3 2 3 5 6 6 5 6 7 8 8 8 9 8 7 7 8

ECMWFNIL_850_dewp_006.txt.gz
Dewpoint
-8 -8 -8 -7 -7 -7 -8 -9 -9 -8 -8 -8 -9 -9 -9 -10 -10 -10 -6 -2 -1 -0 0 1 3 5 5 4 2 0 1 3 6 8 9 9 9 9 10 9 5 3
-8 -8 -8 -7 -7 -7 -7 -8 -9 -9 -8 -8 -8 -8 -9 -9 -10 -11 -11 -7 -3 -1 -0 -0 -1 2 5 6 5 3 1 1 1 4 6 8 9 9 9 9 7 5
-7 -7 -7 -7 -7 -6 -8 -8 -8 -8 -8 -8 -8 -9 -9 -9 -10 -10 -10 -10 -7 -3 -1 -0 -1 2 5 6 7 6 5 3 1 0 2 4 8 9 9 8 7 7
-7 -7 -6 -6 -7 -7 -7 -8 -8 -8 -8 -8 -9 -9 -10 -10 -10 -9 -8 -8 -9 -7 -3 -1 -0 1 2 3 5 7 6 6 5 2 1 0 4 8 8 8 8 8
-6 -6 -6 -6 -6 -7 -8 -8 -8 -8 -8 -9 -9 -10 -11 -9 -5 -4 -2 -1 -2 -5 -5 -3 -1 0 1 2 4 6 6 7 6 6 4 2 1 4 7 8 8 9
-6 -6 -6 -6 -7 -7 -8 -8 -9 -8 -7 -6 -4 -5 -8 -7 -3 -1 1 1 1 0 -2 -3 -2 -1 1 2 3 4 6 6 6 7 6 5 3 2 5 8 8 9
-5 -6 -6 -6 -7 -8 -9 -9 -9 -7 -3 -1 0 -1 -3 -5 -4 -1 1 1 1 1 1 1 1 0 0 2 3 4 5 6 6 6 6 7 6 4 4 7 8 8
-5 -6 -7 -7 -8 -8 -9 -9 -8 -3 0 1 1 1 0 -2 -3 -1 1 1 1 1 1 2 2 2 2 2 3 4 5 6 6 6 6 6 6 6 5 6 7 7
-6 -6 -7 -8 -9 -9 -10 -8 -5 -2 1 1 1 1 1 -0 -0 0 1 2 1 1 1 2 2 2 3 3 3 4 5 5 5 6 6 6 6 7 6 6 7 7
-6 -8 -8 -8 -9 -10 -9 -6 -4 -2 0 1 1 1 1 1 1 1 1 2 2 1 1 1 2 2 2 3 3 3 4 5 5 5 6 6 6 7 6 6 7 6
-7 -8 -8 -9 -10 -9 -7 -5 -4 -2 -0 1 1 1 1 1 1 1 1 1 1 2 2 2 2 2 2 3 3 3 3 4 5 5 6 6 6 6 6 6 7 7
-8 -8 -9 -10 -11 -9 -6 -4 -2 -1 0 1 1 1 1 1 1 1 1 1 1 2 2 2 2 2 2 2 2 3 3 3 4 5 6 6 6 6 6 7 7 7
-8 -9 -11 -12 -10 -7 -4 -2 -1 -0 1 1 1 1 1 1 1 1 1 1 1 1 1 1 1 2 2 2 2 2 3 3 3 4 5 6 6 6 6 7 7 7
-8 -10 -12 -11 -7 -3 -1 -0 -0 0 1 1 1 1 1 1 1 1 1 1 1 1 1 1 1 1 1 1 2 2 2 2 3 3 4 5 6 6 6 6 6 7
-9 -11 -10 -6 -3 -1 -0 -0 -0 0 0 0 0 0 1 1 0 0 0 0 1 1 1 1 1 1 1 1 1 2 2 2 2 3 4 5 6 6 6 6 6 7
-9 -8 -5 -2 -1 -1 -0 -1 -1 -0 0 -0 -0 -0 0 0 0 0 0 -0 0 0 0 1 1 1 1 0 0 0 1 2 3 3 3 4 5 6 6 6 6 6
-7 -4 -2 -1 -1 -1 -1 -1 -1 -1 -1 -1 -0 -0 0 0 0 0 0 -0 -0 -0 0 0 0 0 0 -0 -0 -1 -0 1 2 3 3 4 4 5 6 6 6 6
-5 -2 -1 -1 -1 -1 -1 -1 -1 -1 -1 -0 -0 -0 -0 -0 -0 -0 -0 -0 -0 -0 -0 -0 -0 -0 -1 -1 -1 -1 -1 -0 0 1 2 3 4 5 6 6 6 6
-3 -2 -2 -2 -2 -2 -2 -2 -2 -1 -1 -1 -1 -0 -0 -1 -1 -1 -1 -1 -1 -1 -1 -0 -1 -1 -1 -1 -1 -1 -1 -1 -0 0 1 2 3 4 6 6 6 6
-3 -2 -2 -2 -2 -2 -2 -2 -2 -1 -1 -1 -1 -1 -1 -1 -1 -1 -1 -1 -1 -1 -1 -1 -1 -1 -1 -1 -2 -2 -1 -1 -1 -0 0 1 2 3 5 6 6 6
-3 -3 -3 -2 -2 -3 -3 -3 -2 -2 -1 -2 -2 -2 -2 -2 -2 -2 -2 -2 -2 -2 -2 -2 -1 -2 -2 -2 -2 -2 -2 -1 -1 -1 -0 0 1 2 3 5 7 7
-3 -3 -3 -3 -3 -3 -3 -3 -2 -2 -2 -2 -2 -2 -2 -2 -2 -2 -2 -2 -2 -2 -2 -2 -2 -2 -2 -2 -2 -2 -2 -1 -1 -1 -1 0 1 2 2 4 6 7
-3 -3 -3 -4 -4 -4 -3 -2 -2 -2 -2 -2 -2 -2 -2 -2 -2 -2 -2 -2 -2 -2 -2 -2 -2 -2 -2 -1 -2 -2 -2 -1 -1 -1 -0 -0 1 2 2 3 5 7
-3 -3 -4 -4 -4 -4 -3 -2 -2 -2 -2 -2 -2 -3 -3 -3 -3 -3 -3 -3 -3 -2 -2 -2 -2 -1 -1 -1 -1 -2 -2 -1 -1 -0 0 0 1 2 2 3 5 6
-3 -4 -4 -4 -4 -3 -2 -2 -2 -2 -2 -2 -3 -3 -3 -3 -3 -3 -3 -3 -3 -3 -2 -2 -2 -1 -1 -1 -1 -1 -1 -1 -0 -0 0 1 1 2 3 3 4 5
-3 -3 -4 -5 -4 -3 -2 -2 -2 -2 -2 -3 -3 -3 -3 -3 -3 -3 -3 -3 -3 -3 -2 -2 -2 -1 -1 -0 -0 -1 -1 -1 -0 0 1 1 2 3 3 4 4 5

ECMWFNIL_850_dewp_009.txt.gz
Dewpoint
-5 -6 -7 -8 -7 -7 -7 -7 -6 -6 -7 -7 -7 -7 -6 -6 -7 -7 -7 -8 -9 -10 -11 -12 -9 -3 -0 1 3 5 6 6 7 6 6 7 8 9 9 9 9 10
-3 -5 -7 -7 -7 -7 -7 -7 -7 -6 -6 -7 -7 -7 -7 -7 -7 -7 -8 -8 -9 -10 -10 -12 -12 -8 -3 -0 -1 1 4 6 6 6 6 6 7 8 8 8 9 9
-2 -5 -6 -7 -7 -7 -7 -6 -6 -6 -6 -6 -6 -7 -7 -7 -8 -8 -8 -9 -10 -11 -11 -11 -12 -12 -6 -2 -1 0 4 6 6 6 6 6 6 7 8 9 9 9
-2 -4 -5 -6 -6 -6 -6 -6 -6 -6 -6 -6 -6 -7 -7 -7 -8 -7 -8 -9 -7 -7 -7 -7 -8 -8 -6 -2 1 3 4 6 7 6 7 7 7 7 7 8 9 9
-2 -4 -5 -6 -6 -6 -6 -5 -6 -6 -6 -6 -7 -7 -7 -8 -7 -8 -8 -5 -2 -1 -0 -0 -2 -2 -1 -1 0 3 4 4 5 6 7 7 7 7 7 7 7 8
-2 -3 -4 -5 -5 -5 -5 -5 -5 -6 -6 -7 -7 -7 -7 -7 -7 -6 -5 -1 1 2 2 2 2 1 1 0 1 3 5 4 5 6 7 7 6 7 7 7 7 7
-2 -4 -4 -4 -5 -5 -5 -5 -6 -6 -7 -7 -6 -6 -5 -4 -5 -5 -3 -1 1 2 2 2 2 2 2 2 3 4 5 6 5 6 6 6 6 6 7 7 8 8
-2 -4 -4 -4 -5 -5 -5 -5 -6 -6 -6 -6 -5 -3 -1 -0 -1 -2 -2 -1 1 2 2 2 2 2 2 3 3 4 4 5 5 6 6 6 6 6 6 6 6 7
-3 -3 -4 -4 -4 -5 -5 -6 -5 -5 -4 -3 -2 -1 0 1 0 -0 -0 1 1 2 2 2 2 2 2 2 2 3 4 4 4 5 6 6 6 6 6 6 6 6
-2 -3 -3 -4 -4 -5 -6 -5 -5 -4 -2 -1 -1 0 1 1 1 1 1 1 1 1 2 2 2 2 2 2 2 2 3 3 4 4 5 6 6 6 6 6 6 6
-1 -2 -3 -3 -5 -6 -6 -6 -4 -3 -2 -1 -0 1 1 1 1 1 1 1 1 2 2 2 2 2 2 2 1 1 2 3 3 4 4 5 5 6 6 6 6 7
1 -1 -2 -3 -5 -6 -5 -5 -4 -3 -2 -1 0 1 1 1 1 0 1 1 1 1 2 2 2 2 2 2 2 1 1 2 2 3 4 4 4 5 6 6 6 6
2 0 -1 -3 -5 -6 -5 -6 -5 -3 -2 -1 1 1 0 0 0 0 1 1 1 1 1 1 2 2 2 2 2 2 1 1 1 2 3 3 4 4 5 5 6 6
1 0 -2 -4 -6 -6 -6 -5 -4 -1 -0 0 0 0 0 0 0 0 1 1 1 1 1 1 1 1 1 2 2 2 2 2 2 2 2 3 3 4 4 4 5 6
0 -1 -4 -5 -5 -4 -3 -2 -1 -0 -0 -0 -0 -0 -0 0 0 0 0 0 1 1 1 1 1 1 1 1 1 1 1 2 2 2 2 2 3 4 4 4 5 6
0 -1 -3 -3 -3 -2 -0 -0 -1 -1 -1 -1 -1 -1 -0 -0 -0 0 -0 0 0 0 0 1 1 1 1 1 1 1 1 1 2 2 2 2 3 3 4 4 5 5
0 -1 -1 -1 -1 -1 -0 -1 -1 -1 -1 -1 -1 -1 -1 -0 0 0 0 0 0 0 0 1 1 1 1 1 1 1 1 1 1 1 2 2 3 3 3 4 4 5
-1 -1 -1 -1 -1 -1 -1 -1 -1 -1 -2 -2 -2 -1 -1 -0 -0 -0 -0 0 0 0 0 0 0 1 1 0 0 0 0 1 1 1 1 1 2 2 3 4 4 4
-2 -2 -2 -2 -2 -1 -1 -2 -2 -2 -2 -2 -2 -2 -1 -1 -1 -0 -0 -0 -0 -0 -0 -0 -0 0 0 0 0 0 0 0 -0 0 1 1 1 1 2 3 4 4
-3 -2 -2 -2 -2 -2 -2 -2 -2 -2 -2 -3 -3 -2 -1 -1 -1 -1 -1 -1 -1 -1 -0 -0 -0 -0 -0 -0 -0 -0 -0 -0 -0 -0 0 0 0 1 1 2 2 3
-3 -3 -3 -2 -2 -2 -2 -3 -3 -3 -3 -3 -2 -1 -1 -1 -1 -1 -1 -1 -1 -1 -1 -1 -1 -1 -1 -1 -1 -1 -1 -1 -0 -0 -0 -0 -0 -0 0 1 1 2
-4 -3 -3 -3 -3 -3 -3 -3 -3 -3 -3 -3 -2 -1 -1 -1 -1 -1 -2 -2 -1 -1 -1 -1 -1 -1 -1 -1 -1 -1 -1 -1 -1 -1 -1 -1 -1 -0 -0 0 1 1
-4 -3 -3 -3 -3 -3 -4 -4 -3 -4 -3 -2 -2 -2 -1 -1 -2 -2 -2 -2 -2 -2 -2 -1 -1 -1 -1 -1 -1 -1 -1 -2 -1 -1 -1 -1 -1 -1 -1 -0 -0 0
-4 -3 -3 -3 -3 -4 -4 -4 -4 -4 -3 -2 -2 -2 -1 -2 -2 -2 -2 -2 -2 -2 -2 -2 -2 -2 -2 -2 -2 -2 -2 -2 -2 -1 -1 -1 -1 -1 -1 -1 -0 0
-5 -4 -3 -3 -3 -3 -4 -4 -4 -4 -3 -2 -2 -2 -2 -2 -2 -3 -2 -2 -2 -2 -2 -2 -2 -2 -2 -2 -2 -2 -2 -2 -2 -2 -2 -1 -1 -1 -1 -0 -0 -0
-4 -3 -3 -2 -2 -3 -4 -4 -4 -4 -3 -3 -2 -2 -2 -2 -2 -3 -3 -3 -3 -3 -3 -3 -3 -3 -3 -2 -2 -2 -2 -2 -2 -2 -2 -2 -1 -1 -1 -0 -0 0

ECMWFNIL_850_dewp_015.txt.gz
Dewpoint
-1 -1 -1 -0 0 -1 -2 -3 -4 -4 -4 -4 -5 -6 -6 -6 -6 -6 -6 -6 -6 -7 -8 -8 -9 -9 -10 -11 -12 -12 -12 -12 -12 -13 -10 -3 0 1 2 3 4 5
-2 -2 -2 -2 -1 -1 -2 -2 -3 -4 -4 -4 -5 -6 -6 -6 -6 -6 -6 -6 -7 -7 -8 -8 -8 -9 -9 -8 -8 -9 -11 -12 -12 -12 -11 -8 -4 -1 0 2 4 4
-3 -4 -4 -4 -4 -2 -1 -2 -3 -3 -3 -4 -5 -5 -5 -5 -6 -6 -6 -6 -7 -8 -8 -8 -8 -8 -8 -7 -5 -6 -7 -8 -10 -11 -10 -9 -7 -4 -2 0 2 5
-4 -5 -5 -5 -5 -3 -2 -2 -3 -3 -3 -3 -4 -5 -5 -5 -5 -5 -6 -6 -7 -8 -8 -7 -7 -7 -7 -6 -2 -1 -2 -3 -4 -6 -8 -10 -9 -6 -3 0 2 5
-6 -6 -6 -6 -5 -5 -3 -3 -2 -3 -3 -3 -4 -4 -4 -5 -5 -5 -6 -7 -8 -8 -7 -6 -6 -5 -5 -5 -2 1 2 2 1 1 -1 -5 -9 -8 -4 1 4 4
-6 -5 -6 -5 -5 -5 -4 -4 -3 -2 -2 -3 -4 -4 -4 -4 -5 -6 -6 -8 -8 -8 -7 -6 -5 -4 -4 -4 -4 -1 1 3 3 3 3 1 -2 -5 -5 -0 4 5
-6 -5 -5 -5 -5 -5 -4 -3 -2 -2 -2 -3 -3 -4 -4 -4 -5 -6 -7 -8 -8 -7 -6 -5 -4 -4 -3 -2 -2 -2 -1 1 2 3 3 2 2 1 -2 -1 3 6
-5 -5 -6 -5 -5 -5 -4 -4 -3 -2 -2 -2 -3 -3 -4 -5 -6 -7 -8 -8 -8 -6 -5 -5 -4 -3 -2 -1 -1 -1 -1 0 2 2 3 3 2 2 1 1 2 4
-5 -5 -5 -5 -6 -5 -4 -4 -3 -2 -2 -3 -3 -4 -4 -6 -7 -9 -9 -8 -7 -5 -4 -4 -4 -3 -1 -0 -0 0 -0 0 1 2 2 2 2 2 2 2 1 1
-5 -5 -5 -5 -5 -5 -4 -4 -3 -2 -2 -3 -3 -4 -6 -8 -9 -9 -8 -6 -5 -5 -4 -4 -3 -2 -1 0 0 1 0 0 1 2 2 2 2 2 2 2 2 2
-4 -5 -4 -4 -4 -3 -3 -2 -2 -2 -2 -3 -4 -6 -7 -8 -9 -8 -6 -5 -4 -3 -3 -3 -2 -1 0 1 0 1 0 0 1 2 2 2 2 2 2 2 2 2
-3 -4 -4 -3 -2 -2 -1 -1 -1 -1 -2 -4 -5 -7 -8 -8 -7 -6 -5 -4 -3 -3 -3 -2 -1 -0 -0 0 0 0 0 0 0 1 2 2 2 2 2 2 2 2
-3 -3 -2 -1 -1 -0 -0 -0 -1 -1 -3 -5 -7 -7 -7 -6 -5 -4 -4 -3 -4 -4 -3 -2 -1 -0 -0 0 0 0 1 1 1 1 1 1 2 2 2 2 2 2
-2 -1 0 1 1 1 1 1 -0 -2 -4 -6 -7 -6 -5 -4 -3 -3 -3 -3 -3 -3 -2 -1 -1 -1 -0 0 0 1 1 1 1 1 1 1 1 2 2 2 2 2
-0 1 2 2 2 2 1 1 -0 -2 -4 -6 -5 -4 -3 -3 -3 -2 -2 -2 -2 -2 -2 -2 -2 -2 -2 -2 -1 0 1 1 1 1 1 1 1 1 1 2 2 2
2 2 3 3 3 2 2 0 -1 -3 -5 -5 -4 -3 -2 -2 -2 -1 -1 -2 -2 -2 -2 -3 -3 -4 -4 -5 -4 -3 -1 0 0 0 0 0 0 1 1 1 1 2
3 3 4 4 3 2 1 -0 -3 -4 -4 -3 -2 -2 -1 -1 -2 -2 -2 -2 -3 -3 -3 -3 -3 -4 -5 -6 -7 -6 -3 -2 -0 0 0 0 1 1 1 1 1 1
4 4 4 3 3 2 -0 -2 -3 -3 -2 -2 -1 -1 -1 -2 -2 -3 -3 -3 -3 -3 -3 -3 -3 -4 -5 -7 -7 -5 -4 -3 -3 -2 -1 -0 0 0 0 0 0 -0
4 4 3 2 1 0 -1 -2 -2 -2 -1 -2 -1 -2 -2 -3 -3 -3 -3 -3 -3 -4 -4 -4 -4 -5 -6 -7 -6 -4 -4 -3 -3 -3 -3 -2 -2 -1 -1 -0 -0 -0
3 2 1 1 -0 -1 -2 -2 -2 -2 -2 -1 -2 -2 -3 -3 -3 -3 -3 -3 -3 -4 -4 -4 -5 -6 -6 -5 -4 -3 -3 -3 -3 -3 -3 -3 -3 -3 -2 -2 -2 -2
1 1 1 -0 -1 -2 -3 -3 -2 -2 -2 -2 -2 -3 -3 -3 -3 -3 -4 -4 -4 -4 -4 -5 -5 -6 -5 -4 -3 -3 -2 -2 -2 -2 -2 -2 -3 -3 -3 -3 -3 -3
0 -0 -1 -2 -3 -3 -3 -3 -2 -2 -2 -2 -2 -3 -3 -4 -4 -4 -4 -4 -5 -5 -5 -5 -5 -4 -4 -4 -4 -3 -3 -3 -3 -3 -3 -3 -3 -3 -3 -3 -3 -3
-1 -2 -3 -4 -4 -4 -3 -3 -2 -3 -2 -2 -3 -3 -3 -3 -4 -4 -5 -5 -5 -5 -5 -5 -5 -5 -4 -4 -4 -4 -4 -3 -3 -3 -4 -3 -4 -4 -4 -4 -3 -3
-2 -3 -4 -4 -4 -4 -4 -3 -3 -3 -3 -3 -3 -3 -4 -4 -5 -5 -5 -5 -5 -5 -5 -5 -5 -5 -4 -4 -4 -4 -4 -4 -4 -4 -4 -4 -4 -4 -4 -4 -4 -4
-3 -4 -5 -5 -5 -5 -4 -4 -4 -4 -4 -4 -4 -4 -5 -5 -5 -5 -6 -6 -6 -6 -6 -5 -5 -5 -5 -5 -5 -5 -4 -4 -4 -4 -5 -5 -5 -5 -5 -5 -5 -4
-6 -6 -6 -5 -5 -5 -6 -6 -5 -5 -4 -4 -5 -5 -6 -6 -7 -9 -10 -9 -8 -7 -6 -5 -5 -5 -5 -5 -5 -5 -5 -5 -5 -5 -5 -5 -5 -5 -5 -5 -5 -4

ECMWFNIL_850_dewp_021.txt.gz
Dewpoint
-3 -4 -3 -3 -4 -3 -2 -2 -2 -2 -3 -3 -4 -4 -4 -5 -5 -6 -6 -6 -6 -6 -6 -7 -8 -9 -9 -9 -9 -9 -9 -10 -10 -11 -11 -12 -12 -12 -12 -12 -12 -11
-4 -4 -3 -2 -3 -3 -2 -2 -2 -3 -3 -2 -3 -3 -4 -4 -5 -5 -5 -6 -5 -5 -6 -7 -8 -9 -9 -8 -9 -9 -9 -10 -10 -10 -11 -11 -11 -11 -10 -10 -11 -12
-3 -3 -3 -3 -3 -3 -2 -2 -3 -2 -2 -2 -2 -3 -3 -4 -4 -5 -5 -5 -5 -5 -5 -7 -8 -9 -9 -9 -9 -9 -9 -10 -10 -11 -11 -11 -11 -11 -9 -8 -8 -9
-2 -2 -2 -3 -3 -2 -1 -1 -2 -3 -2 -2 -2 -2 -3 -3 -3 -4 -5 -5 -5 -5 -5 -7 -8 -9 -9 -9 -9 -9 -10 -10 -10 -11 -10 -9 -9 -10 -9 -8 -7 -7
-0 -0 -1 -2 -2 -1 -0 -1 -2 -3 -2 -2 -1 -2 -2 -3 -3 -3 -4 -5 -5 -4 -5 -7 -9 -9 -9 -9 -9 -9 -10 -10 -11 -11 -10 -9 -7 -7 -8 -7 -7 -6
1 1 1 -0 -1 -1 -0 -1 -2 -2 -1 -1 0 -1 -2 -2 -2 -2 -3 -4 -4 -4 -5 -7 -9 -9 -9 -9 -9 -10 -10 -10 -11 -11 -10 -9 -7 -6 -6 -6 -6 -6
3 2 2 1 0 -0 -0 -1 -2 -1 0 1 1 0 -1 -1 -1 -1 -3 -4 -4 -4 -6 -8 -9 -9 -9 -9 -9 -10 -10 -10 -10 -10 -10 -9 -9 -8 -7 -6 -6 -6
4 3 2 1 1 0 -0 -1 -2 -0 1 2 2 1 0 -0 -0 -0 -2 -4 -4 -4 -7 -9 -9 -9 -9 -9 -9 -10 -10 -9 -8 -8 -7 -8 -8 -8 -8 -7 -6 -6
5 4 4 3 1 0 -1 -2 -2 -0 1 2 2 2 1 1 1 0 -2 -3 -3 -5 -8 -9 -9 -9 -9 -9 -9 -9 -9 -8 -7 -6 -6 -5 -4 -4 -4 -4 -5 -6
5 5 4 3 1 -0 -1 -3 -2 -1 0 1 2 2 2 2 2 -0 -2 -2 -4 -7 -9 -9 -8 -8 -8 -8 -8 -8 -8 -7 -7 -5 -4 -3 -2 -2 -2 -3 -2 -3
5 5 4 3 1 -0 -1 -1 -0 -0 0 2 3 2 3 2 1 -0 -1 -3 -6 -8 -9 -8 -8 -7 -7 -7 -7 -8 -8 -7 -6 -4 -4 -3 -3 -4 -4 -5 -5 -4
6 5 4 3 2 1 2 2 2 1 1 2 3 3 3 2 1 0 -1 -5 -8 -9 -8 -7 -7 -6 -6 -6 -7 -8 -7 -6 -5 -4 -4 -4 -5 -6 -6 -7 -9 -9
6 5 5 5 4 4 4 5 4 2 2 3 3 3 3 2 2 -0 -4 -7 -8 -8 -7 -6 -5 -5 -5 -6 -6 -6 -5 -5 -4 -4 -5 -5 -6 -6 -7 -9 -10 -10
6 6 6 6 6 6 6 7 5 3 3 3 4 3 3 2 1 -3 -6 -7 -7 -6 -6 -4 -4 -4 -5 -5 -4 -4 -4 -4 -4 -4 -5 -5 -6 -7 -9 -11 -11 -9
6 7 6 6 7 7 8 7 5 4 4 4 3 3 3 1 -2 -5 -6 -7 -6 -5 -4 -2 -3 -3 -4 -4 -3 -3 -3 -3 -3 -4 -4 -4 -5 -7 -11 -12 -11 -9
8 8 8 7 7 8 8 8 5 4 4 4 3 3 1 -1 -4 -6 -6 -5 -4 -3 -2 -1 -2 -3 -4 -4 -3 -3 -3 -3 -3 -4 -4 -4 -6 -9 -12 -12 -10 -7
7 8 8 8 8 8 8 7 5 4 4 3 3 2 -0 -3 -5 -5 -4 -3 -2 -1 -1 -1 -2 -3 -3 -3 -3 -3 -3 -3 -4 -4 -5 -6 -9 -11 -12 -11 -8 -7
5 6 7 8 8 8 8 7 4 3 3 3 2 0 -2 -3 -4 -3 -2 -1 -0 -0 -1 -2 -2 -3 -3 -3 -3 -3 -4 -4 -5 -7 -9 -11 -11 -11 -10 -8 -7 -6
5 5 6 6 7 8 7 6 4 3 3 2 0 -1 -2 -2 -2 -1 -0 -0 -0 -1 -2 -2 -3 -3 -3 -3 -4 -4 -6 -7 -9 -10 -11 -11 -9 -8 -8 -7 -6 -6
6 5 5 5 6 7 6 5 4 3 2 0 -1 -2 -2 -1 -1 -0 -0 -0 -1 -2 -2 -3 -3 -3 -4 -5 -6 -8 -10 -11 -12 -10 -9 -8 -7 -7 -7 -6 -6 -6
6 5 4 5 6 6 5 5 4 3 1 -1 -2 -2 -1 -1 -0 -0 -1 -2 -2 -3 -3 -3 -4 -5 -7 -9 -11 -12 -13 -12 -11 -9 -8 -7 -7 -6 -6 -6 -6 -6
6 5 4 6 6 5 5 5 3 1 -1 -1 -1 -1 -1 -1 -1 -1 -2 -3 -3 -4 -5 -6 -8 -10 -12 -15 -16 -14 -13 -12 -11 -10 -9 -8 -7 -7 -7 -7 -6 -6
6 5 5 6 5 4 5 3 1 -1 -1 -2 -2 -1 -2 -2 -2 -3 -3 -5 -6 -7 -8 -9 -11 -14 -17 -18 -16 -14 -12 -11 -10 -9 -9 -8 -8 -8 -7 -7 -7 -7
6 6 6 5 5 4 3 1 -1 -1 -2 -2 -2 -2 -2 -3 -4 -6 -7 -8 -8 -9 -11 -12 -15 -17 -18 -16 -14 -13 -12 -10 -9 -9 -9 -8 -8 -8 -7 -7 -7 -7
6 5 5 4 4 2 0 -1 -2 -2 -2 -2 -3 -3 -4 -6 -9 -10 -10 -10 -11 -14 -16 -17 -17 -16 -15 -14 -13 -12 -11 -10 -9 -9 -8 -8 -8 -8 -7 -7 -7 -7
5 4 3 2 2 -0 -2 -2 -3 -3 -3 -4 -6 -7 -9 -11 -11 -11 -11 -14 -18 -20 -19 -17 -15 -13 -13 -14 -13 -11 -10 -9 -9 -8 -8 -8 -8 -7 -7 -7 -7 -6

ECMWFNIL_850_dewp_024.txt.gz
Dewpoint
-4 -4 -4 -3 -4 -4 -4 -4 -4 -3 -3 -3 -3 -4 -4 -5 -5 -5 -6 -6 -6 -6 -6 -7 -7 -8 -9 -9 -9 -8 -9 -10 -9 -10 -10 -11 -11 -11 -11 -10 -9 -9
-4 -4 -3 -3 -3 -3 -4 -4 -3 -3 -3 -2 -2 -2 -3 -4 -4 -4 -5 -5 -5 -6 -6 -6 -6 -7 -8 -9 -9 -8 -9 -9 -10 -10 -10 -11 -10 -10 -10 -10 -9 -8
-4 -4 -3 -4 -4 -3 -3 -4 -3 -3 -2 -1 -1 -1 -2 -3 -3 -4 -4 -5 -5 -5 -5 -5 -5 -6 -8 -9 -9 -9 -9 -9 -10 -10 -11 -10 -11 -10 -10 -9 -9 -8
-5 -4 -4 -4 -4 -4 -3 -3 -3 -3 -3 -3 -2 -1 -2 -2 -3 -3 -3 -4 -4 -5 -5 -5 -5 -5 -7 -9 -9 -9 -9 -9 -9 -10 -11 -10 -11 -10 -10 -9 -9 -8
-4 -5 -4 -4 -3 -3 -2 -2 -4 -4 -4 -4 -2 -1 -2 -2 -3 -3 -3 -3 -4 -4 -4 -5 -4 -5 -7 -9 -9 -9 -8 -9 -9 -10 -11 -11 -11 -11 -10 -10 -10 -9
0 -1 -2 -3 -2 -1 -1 -2 -3 -4 -5 -4 -2 -1 -2 -2 -2 -2 -2 -3 -3 -3 -4 -4 -4 -5 -7 -9 -9 -9 -9 -9 -9 -10 -10 -11 -11 -11 -11 -11 -11 -11
3 3 2 1 1 1 1 0 -1 -2 -4 -3 -2 -1 -1 -1 -1 -1 -2 -2 -2 -3 -3 -4 -4 -5 -7 -9 -9 -9 -9 -9 -10 -10 -10 -11 -11 -11 -11 -12 -12 -13
4 5 4 4 4 3 3 2 0 -1 -2 -2 -1 -0 1 0 1 0 -1 -2 -2 -2 -2 -3 -3 -4 -7 -9 -9 -8 -9 -9 -9 -10 -11 -11 -11 -12 -12 -12 -12 -13
5 5 5 5 5 5 4 3 2 1 -0 -1 -1 1 2 2 2 2 1 -0 -1 -1 -2 -3 -3 -4 -8 -9 -9 -9 -8 -9 -9 -10 -11 -11 -11 -11 -11 -11 -12 -12
5 5 6 6 6 6 5 5 4 3 2 2 1 2 3 3 3 2 1 1 1 0 -1 -2 -3 -5 -8 -9 -8 -8 -9 -9 -10 -10 -11 -11 -10 -10 -9 -9 -10 -11
5 5 6 6 6 6 6 6 6 5 5 4 4 4 4 4 4 3 2 1 2 1 -0 -2 -4 -7 -9 -8 -8 -8 -8 -9 -10 -10 -11 -10 -10 -9 -8 -8 -9 -10
5 5 5 5 5 6 6 6 7 6 6 6 6 5 5 4 4 3 2 2 2 1 -0 -2 -5 -8 -8 -7 -8 -8 -8 -9 -9 -10 -10 -10 -9 -9 -8 -8 -8 -9
6 6 6 6 6 6 7 7 7 7 7 7 7 6 5 5 4 3 3 3 2 1 -1 -4 -7 -7 -6 -5 -6 -6 -7 -8 -8 -9 -9 -9 -8 -7 -7 -8 -8 -9
9 8 7 7 7 7 7 8 8 7 7 8 8 7 6 4 3 3 3 3 2 1 -2 -5 -6 -5 -4 -4 -4 -5 -6 -6 -6 -7 -7 -8 -8 -7 -7 -8 -8 -9
9 9 9 8 8 7 7 8 7 7 7 7 7 7 6 5 4 4 3 3 2 -1 -4 -6 -4 -3 -3 -3 -3 -3 -4 -4 -5 -5 -6 -6 -6 -6 -7 -8 -9 -12
5 7 8 8 8 7 8 8 7 7 7 6 6 6 5 5 4 4 3 2 0 -3 -5 -4 -3 -3 -2 -2 -2 -2 -3 -3 -4 -4 -4 -5 -5 -5 -8 -11 -15 -20
1 4 6 6 6 7 8 8 8 7 7 7 6 5 5 4 4 4 3 1 -2 -5 -4 -3 -3 -2 -1 -1 -2 -2 -3 -3 -3 -4 -4 -4 -6 -9 -13 -18 -21 -22
-6 -2 1 4 6 7 8 9 9 8 7 7 6 5 5 4 3 3 1 -2 -4 -4 -3 -2 -1 -1 -1 -1 -2 -2 -3 -3 -3 -4 -5 -8 -12 -16 -19 -20 -19 -19
-10 -7 -4 -0 4 7 8 9 8 8 7 7 6 5 4 3 2 1 -1 -3 -3 -3 -2 -1 -0 -1 -1 -2 -2 -3 -3 -3 -5 -7 -11 -15 -18 -18 -18 -17 -16 -15
-11 -9 -7 -4 0 5 8 9 8 7 7 6 5 4 4 3 1 -1 -1 -2 -2 -1 -1 -0 -0 -1 -2 -2 -3 -3 -4 -6 -9 -14 -19 -19 -18 -16 -15 -14 -13 -12
-10 -10 -8 -4 0 5 7 8 7 7 7 6 5 5 4 2 -0 -2 -2 -1 -0 0 -0 -1 -1 -2 -3 -4 -4 -6 -8 -12 -17 -20 -19 -17 -16 -14 -13 -12 -12 -11
-7 -9 -7 -3 1 5 7 7 7 7 6 5 5 4 2 -0 -2 -2 -0 0 0 -0 -1 -2 -3 -4 -5 -7 -9 -12 -16 -18 -18 -18 -16 -14 -14 -13 -12 -11 -11 -10
-5 -6 -6 -2 2 6 7 7 7 6 5 5 4 2 -0 -1 -1 0 0 -0 -1 -2 -3 -4 -5 -8 -10 -14 -16 -18 -18 -16 -15 -14 -14 -13 -12 -11 -11 -10 -10 -9
-3 -4 -4 -0 4 6 7 7 7 6 5 4 2 0 -1 0 1 -0 -1 -2 -3 -4 -5 -8 -11 -15 -18 -19 -18 -16 -15 -14 -13 -13 -12 -11 -11 -10 -10 -9 -9 -9
-2 -2 -1 2 5 6 6 6 6 5 4 3 1 -0 0 -0 -1 -2 -3 -4 -6 -8 -12 -16 -19 -20 -18 -16 -15 -14 -13 -13 -12 -11 -11 -10 -9 -9 -9 -8 -8 -8
0 1 2 4 6 6 6 6 5 3 2 1 -0 -1 -1 -2 -3 -5 -7 -10 -14 -17 -21 -22 -19 -17 -17 -15 -14 -14 -13 -12 -11 -10 -9 -9 -8 -8 -8 -8 -8 -8

ECMWFNIL_850_dewp_027.txt.gz
Dewpoint
-8 -8 -7 -5 -4 -3 -3 -3 -3 -3 -3 -3 -4 -4 -5 -5 -5 -6 -6 -6 -6 -7 -7 -7 -7 -8 -8 -9 -9 -9 -8 -8 -8 -9 -10 -10 -11 -11 -11 -11 -10 -10
-7 -7 -6 -5 -4 -3 -2 -2 -2 -2 -2 -2 -2 -3 -4 -4 -4 -4 -5 -5 -6 -6 -6 -7 -6 -7 -7 -8 -9 -9 -9 -9 -9 -9 -9 -10 -11 -11 -11 -11 -11 -11
-7 -6 -5 -5 -4 -3 -2 -2 -2 -2 -2 -1 -1 -1 -2 -3 -3 -3 -4 -4 -5 -5 -5 -5 -5 -6 -6 -7 -8 -9 -9 -9 -9 -9 -9 -10 -10 -11 -11 -11 -12 -12
-7 -6 -6 -5 -4 -3 -2 -2 -1 -1 -1 -1 -0 0 -0 -1 -2 -2 -3 -3 -4 -4 -5 -5 -5 -5 -5 -5 -7 -9 -9 -9 -9 -9 -9 -9 -10 -10 -11 -11 -11 -12
-7 -7 -7 -5 -5 -4 -3 -2 -2 -1 -1 -1 -0 0 1 1 0 -1 -2 -2 -3 -3 -4 -4 -5 -4 -4 -4 -6 -8 -9 -9 -9 -8 -9 -9 -10 -10 -11 -11 -11 -12
-6 -6 -7 -6 -5 -4 -3 -3 -2 -1 0 0 0 0 1 1 2 1 0 -1 -2 -2 -3 -3 -3 -4 -4 -4 -5 -7 -9 -9 -9 -9 -9 -9 -9 -10 -10 -11 -12 -12
-5 -5 -6 -6 -5 -3 -2 -2 -2 -1 0 1 1 1 1 2 2 2 2 1 -0 -1 -2 -2 -2 -2 -3 -3 -4 -6 -8 -9 -9 -8 -9 -9 -9 -10 -11 -11 -12 -12
-1 -2 -3 -4 -5 -3 -0 1 1 1 1 2 3 2 2 2 2 3 3 2 2 0 -1 -1 -1 -1 -2 -3 -4 -6 -8 -9 -9 -8 -8 -9 -9 -10 -11 -11 -12 -12
3 2 1 0 -1 -0 1 3 4 4 3 3 4 4 3 3 3 3 3 3 3 2 1 -0 -1 -0 -1 -2 -3 -5 -8 -9 -8 -8 -8 -9 -9 -10 -11 -11 -12 -13
6 6 5 5 4 3 3 4 5 5 5 5 5 5 5 5 4 4 4 3 3 3 2 1 0 0 0 -1 -3 -5 -8 -9 -8 -8 -9 -9 -10 -10 -11 -11 -12 -13
7 7 7 7 6 6 5 5 5 6 6 6 6 6 6 6 5 5 4 4 4 3 3 2 1 1 1 -0 -2 -4 -7 -8 -8 -8 -8 -8 -9 -10 -10 -11 -12 -12
7 8 8 8 8 8 7 7 6 7 7 7 7 7 7 7 6 6 5 4 4 4 3 2 2 2 1 -0 -2 -5 -7 -8 -8 -7 -7 -7 -8 -8 -9 -9 -10 -10
7 8 9 9 9 9 8 8 8 7 8 8 8 7 6 6 6 6 6 5 4 4 4 3 2 2 2 -0 -2 -5 -7 -8 -7 -6 -6 -6 -6 -6 -7 -7 -8 -8
2 5 7 8 8 8 9 9 9 9 8 8 8 7 6 5 5 5 6 6 5 4 4 3 3 3 1 -0 -3 -6 -7 -7 -6 -4 -4 -4 -4 -5 -5 -6 -6 -7
-7 -4 0 3 5 7 7 8 8 9 9 9 9 8 7 6 5 5 6 6 5 5 3 3 3 2 1 -1 -4 -6 -6 -4 -3 -3 -3 -3 -3 -4 -4 -5 -5 -8
-10 -11 -9 -6 -1 2 5 6 7 8 8 9 9 9 8 6 5 5 5 6 6 5 3 2 3 2 1 -2 -5 -5 -4 -2 -2 -2 -2 -2 -3 -3 -4 -5 -8 -13
-8 -9 -11 -12 -10 -5 -0 4 6 7 8 8 9 9 8 7 6 5 5 5 5 4 3 3 2 2 -0 -3 -5 -4 -2 -2 -2 -2 -2 -3 -3 -4 -5 -8 -13 -20
-12 -11 -10 -11 -13 -12 -8 -3 2 5 7 8 8 8 8 7 6 6 5 5 5 4 3 3 2 1 -2 -4 -4 -3 -2 -1 -1 -2 -3 -3 -4 -6 -10 -15 -21 -23
-15 -14 -13 -12 -12 -14 -13 -10 -5 1 5 7 8 8 8 7 6 6 6 5 4 4 3 2 0 -2 -4 -4 -2 -1 -1 -1 -2 -3 -3 -5 -7 -12 -17 -20 -20 -19
-14 -14 -14 -13 -12 -13 -14 -13 -9 -4 2 6 8 8 8 7 6 6 5 5 4 3 2 0 -1 -3 -3 -2 -1 -1 -1 -1 -2 -4 -6 -10 -14 -18 -19 -17 -16 -16
-12 -12 -12 -13 -12 -12 -13 -13 -11 -8 -1 5 7 7 7 7 6 6 5 4 4 3 1 -1 -2 -2 -1 -1 -0 -1 -2 -3 -5 -8 -13 -17 -18 -17 -16 -16 -15 -14
-8 -9 -10 -12 -12 -11 -12 -12 -10 -8 -1 5 7 7 7 7 6 5 5 4 3 1 -1 -2 -2 -2 -1 -0 -1 -2 -4 -7 -12 -16 -18 -18 -16 -16 -15 -15 -14 -13
-4 -5 -7 -8 -9 -10 -11 -11 -8 -4 2 6 7 7 6 6 5 5 4 3 1 -1 -2 -2 -2 -2 -1 -2 -3 -6 -11 -16 -18 -18 -17 -16 -15 -15 -14 -13 -12 -12
-2 -3 -3 -4 -5 -7 -9 -9 -5 0 5 6 7 6 6 5 5 4 3 1 -1 -1 -1 -1 -2 -2 -4 -6 -10 -15 -18 -18 -17 -16 -15 -15 -14 -13 -12 -11 -10 -10
-1 -1 -1 -2 -3 -4 -6 -5 -3 2 6 7 6 6 6 5 4 2 0 -1 -1 -1 -1 -2 -4 -7 -11 -16 -18 -18 -17 -16 -16 -15 -14 -13 -12 -11 -10 -9 -8 -7
-1 -0 -1 -1 -1 -2 -2 -1 1 3 5 6 5 4 4 3 1 -0 -1 -2 -3 -4 -6 -8 -12 -17 -21 -20 -18 -16 -16 -16 -15 -14 -12 -10 -10 -9 -7 -7 -6 -6

ECMWFNIL_850_dewp_030.txt.gz
Dewpoint
-8 -9 -7 -8 -6 -1 -1 -2 1 -1 -2 0 1 0 -1 -3 -6 -6 -6 -6 -7 -7 -7 -7 -8 -8 -8 -8 -9 -8 -8 -9 -8 -8 -8 -9 -10 -10 -11 -12 -11 -12
-8 -8 -7 -7 -7 -5 -4 -4 -2 -1 -1 -0 1 2 1 -2 -5 -6 -5 -6 -6 -6 -6 -6 -6 -7 -7 -7 -8 -9 -9 -9 -8 -8 -8 -8 -9 -9 -10 -11 -11 -13
-8 -9 -8 -8 -7 -7 -6 -5 -3 -2 -1 -1 -0 1 1 -2 -4 -4 -5 -5 -5 -5 -5 -5 -5 -6 -5 -6 -6 -7 -8 -9 -8 -9 -9 -8 -8 -9 -10 -10 -10 -12
-8 -8 -8 -8 -7 -7 -6 -4 -3 -2 -1 -1 -1 -0 0 -1 -2 -2 -3 -4 -4 -4 -4 -4 -5 -4 -5 -5 -5 -5 -6 -8 -9 -9 -8 -8 -9 -8 -9 -10 -10 -11
-8 -8 -8 -7 -6 -6 -5 -4 -3 -3 -2 -1 -1 -1 -0 0 0 -0 -1 -2 -3 -3 -3 -3 -4 -4 -4 -4 -4 -4 -5 -6 -8 -9 -7 -7 -8 -8 -9 -9 -9 -11
-8 -7 -7 -7 -7 -6 -5 -5 -4 -3 -2 -1 -1 -0 -0 0 0 1 1 1 0 -1 -2 -2 -3 -3 -3 -3 -4 -4 -3 -4 -6 -8 -6 -4 -6 -7 -8 -8 -7 -8
-7 -7 -6 -6 -6 -7 -6 -6 -5 -4 -3 -2 -1 -0 0 0 1 1 1 2 2 1 1 -1 -2 -2 -2 -2 -2 -3 -3 -3 -5 -8 -6 -4 -5 -6 -6 -8 -8 -7
-3 -5 -5 -5 -5 -5 -6 -6 -5 -5 -5 -3 -1 0 1 1 1 1 1 2 2 2 2 2 1 -0 -1 -1 -1 -2 -2 -3 -4 -6 -7 -6 -7 -6 -5 -6 -10 -9
4 2 1 0 -1 -1 -3 -4 -4 -4 -4 -3 -2 0 2 3 3 2 2 2 2 3 3 3 2 2 1 -0 -0 -0 -1 -2 -3 -4 -6 -8 -8 -7 -6 -6 -8 -10
7 5 5 5 5 5 4 2 1 -0 -0 -1 -2 -0 2 4 5 5 4 3 3 3 4 3 3 3 2 1 1 0 -0 -1 -2 -3 -5 -7 -8 -8 -7 -7 -8 -9
8 7 6 7 8 9 8 7 6 5 5 5 4 3 3 5 6 6 5 5 4 4 4 4 3 3 3 2 2 1 0 -0 -1 -3 -4 -6 -8 -8 -8 -8 -8 -8
9 9 8 8 9 9 9 9 9 9 8 8 8 7 6 6 6 6 6 6 5 4 5 4 4 4 3 3 2 2 1 0 -0 -2 -3 -5 -7 -8 -8 -8 -7 -8
6 8 8 8 9 9 8 8 8 9 9 9 9 8 7 7 7 6 6 6 6 5 5 5 4 4 4 3 3 2 1 1 0 -1 -3 -5 -7 -8 -8 -7 -7 -7
-3 -0 0 3 6 7 7 7 7 8 9 9 9 8 8 8 8 6 6 6 6 6 5 5 5 4 4 4 3 2 2 1 1 -1 -3 -5 -7 -7 -7 -7 -7 -7
-7 -7 -8 -7 -4 -2 2 6 8 9 9 9 9 9 8 9 8 7 6 6 6 6 6 5 5 5 4 4 3 3 2 2 1 -1 -3 -5 -6 -7 -6 -6 -6 -6
-11 -10 -10 -9 -9 -10 -9 -3 4 7 9 9 9 9 9 9 8 8 7 7 6 6 6 6 5 5 4 4 3 3 2 1 0 -2 -3 -5 -6 -6 -5 -5 -5 -6
-14 -14 -15 -14 -13 -11 -11 -12 -7 2 6 8 8 8 8 8 8 8 8 7 6 6 6 6 5 5 4 4 3 2 2 1 -1 -3 -4 -5 -5 -4 -4 -4 -4 -5
-13 -13 -12 -12 -15 -16 -13 -12 -13 -8 -1 5 7 7 7 7 7 8 8 7 6 6 6 5 5 5 4 4 3 2 1 -0 -2 -3 -3 -3 -3 -3 -4 -4 -5 -8
-16 -13 -11 -11 -12 -15 -17 -15 -12 -11 -11 -4 4 7 7 7 8 8 7 7 6 6 5 5 5 5 4 4 3 2 0 -1 -2 -2 -2 -2 -3 -3 -3 -5 -8 -14
-14 -13 -14 -16 -15 -14 -15 -14 -9 -7 -11 -7 3 7 7 7 8 7 7 7 6 5 5 5 5 4 4 3 2 1 -0 -1 -1 -1 -2 -2 -2 -3 -5 -9 -15 -20
-8 -9 -13 -15 -15 -15 -15 -13 -10 -7 -7 -4 3 6 6 7 7 7 7 7 6 5 5 5 4 4 3 2 1 -0 -1 -1 -1 -1 -2 -2 -4 -7 -11 -17 -22 -22
-3 -3 -5 -7 -8 -9 -11 -13 -11 -7 -4 -1 3 6 6 6 7 7 7 7 6 5 5 5 4 3 2 1 0 -1 -1 -1 -1 -2 -4 -6 -10 -15 -20 -22 -20 -18
-2 -1 0 -1 -2 -3 -4 -6 -5 -3 -2 1 5 6 5 5 7 7 7 6 6 5 5 4 3 2 1 1 -1 -1 -1 -3 -5 -7 -9 -14 -17 -19 -18 -17 -16 -16
-0 0 1 1 1 1 1 1 0 1 2 4 5 5 5 5 6 6 6 6 5 5 4 3 3 1 0 -1 -1 -2 -3 -6 -11 -12 -14 -16 -15 -13 -12 -12 -12 -12
1 -0 -0 0 1 2 3 3 3 3 4 5 5 4 5 6 7 6 5 4 4 4 3 2 1 -0 -1 -1 -2 -4 -7 -13 -18 -16 -15 -14 -11 -9 -8 -8 -9 -8
1 0 -1 -1 0 1 3 3 3 3 4 4 4 5 6 6 5 5 4 3 3 2 1 -0 -1 -3 -4 -6 -8 -12 -16 -20 -21 -17 -14 -12 -10 -8 -8 -8 -7 -6

ECMWFNIL_850_dewp_033.txt.gz
Dewpoint
5 5 2 -2 0 3 3 3 4 5 4 3 4 4 4 5 1 -1 2 -1 -5 -5 -7 -7 -7 -9 -7 -8 -7 -1 -5 -9 -8 -9 -8 -8 -9 -9 -10 -11 -12 -6
3 5 5 2 1 3 3 2 3 5 4 3 4 4 5 5 1 -2 0 -2 -4 -4 -7 -6 -6 -8 -5 -5 -8 -3 -3 -7 -8 -8 -8 -7 -7 -8 -10 -9 -13 -10
0 4 5 5 3 3 4 4 3 4 4 3 4 4 5 5 1 -3 -2 -3 -3 -3 -6 -5 -5 -7 -3 -4 -6 -3 -3 -6 -6 -7 -7 -7 -7 -7 -9 -9 -10 -11
-3 0 3 5 5 4 5 5 3 3 3 3 4 4 5 5 1 -2 -2 -3 -3 -3 -5 -4 -4 -5 -3 -5 -4 0 -2 -4 -4 -7 -6 -5 -8 -7 -8 -8 -8 -11
-1 -1 0 3 5 5 6 6 5 4 4 4 4 4 5 4 1 -1 -1 -3 -2 -2 -4 -3 -4 -4 -3 -5 -2 1 -1 -2 -2 -5 -2 -1 -6 -7 -8 -8 -7 -9
3 1 1 2 4 5 6 7 6 5 4 5 5 4 5 4 2 1 1 -1 -1 -1 -2 -2 -3 -3 -3 -4 -2 -1 -1 1 0 -3 0 1 -2 -4 -7 -7 -5 -5
6 5 3 3 4 5 6 6 6 6 5 5 5 5 5 5 3 2 3 3 2 2 1 -0 -1 -2 -2 -2 -1 0 0 2 1 -2 0 3 1 -2 -4 -5 -5 -4
7 7 6 5 5 6 6 6 6 6 6 5 5 6 5 5 4 4 5 5 5 5 5 4 2 1 1 -0 1 2 1 1 0 -2 -0 3 2 -1 -1 -1 -5 -6
5 5 6 7 7 6 7 7 7 7 6 6 6 6 6 6 5 5 5 6 5 6 5 5 4 4 3 2 1 2 2 -0 -1 -2 -1 1 -0 -1 1 1 -3 -5
4 3 6 8 7 7 6 6 6 7 7 6 6 6 6 6 6 6 5 6 6 6 6 6 5 5 5 4 2 2 2 2 1 -1 -1 -0 -1 0 1 1 -2 -4
5 4 5 8 8 7 6 5 6 8 8 8 8 7 7 6 7 6 6 6 6 6 6 6 5 5 5 5 4 3 3 3 3 1 1 0 1 1 0 -1 -3 -4
8 7 7 7 7 7 6 6 6 7 8 9 8 8 8 8 7 7 6 6 6 6 6 6 6 6 5 5 5 4 4 4 3 3 2 2 2 1 -1 -3 -4 -5
7 8 9 9 8 8 8 8 8 8 8 8 9 8 8 8 8 8 7 7 7 7 7 6 6 6 5 5 5 5 5 4 4 3 2 2 1 1 -0 -1 -3 -5
4 5 7 7 7 7 7 6 7 8 8 8 8 8 9 9 8 8 8 8 7 7 7 7 7 6 6 5 5 5 5 4 4 4 3 2 1 1 -0 -1 -3 -5
1 2 2 2 3 4 5 5 4 6 8 8 8 8 8 8 8 8 8 8 8 7 7 7 7 7 6 6 5 5 5 4 4 4 3 2 2 1 0 -1 -3 -5
-0 1 1 1 3 4 5 6 6 6 7 7 7 8 9 9 9 8 8 8 8 7 7 7 7 6 6 6 5 5 4 4 4 4 3 3 2 1 -0 -1 -3 -4
-2 -0 1 1 2 2 2 4 5 6 6 4 2 3 6 8 9 8 8 8 8 7 7 7 7 6 6 5 5 5 5 4 4 4 3 2 1 1 -1 -2 -3 -4
-2 -1 -1 -0 1 1 2 2 3 4 6 6 4 2 3 5 7 7 7 8 7 7 8 7 6 6 6 5 5 5 5 4 4 3 3 2 1 -0 -1 -2 -3 -3
-2 -1 -2 -1 -1 -0 1 1 2 3 3 4 6 6 5 5 5 6 7 7 7 7 8 7 6 6 5 5 5 5 5 4 4 3 2 1 -0 -1 -2 -3 -4 -4
-1 -1 -1 -1 -1 -1 -0 1 2 2 3 4 4 5 6 6 5 4 5 6 6 7 7 7 7 6 5 5 5 5 5 5 3 2 2 1 0 -1 -2 -3 -3 -4
-1 -1 -1 -0 -0 0 0 1 1 2 3 4 4 5 5 6 5 3 3 6 7 6 7 7 6 6 5 5 6 6 5 4 2 2 2 1 -0 -1 -3 -3 -5 -7
-1 -0 0 0 1 1 1 1 2 3 3 4 4 4 5 5 5 3 3 6 7 6 6 6 6 6 6 6 6 5 4 3 2 2 1 -0 -1 -3 -4 -5 -7 -10
-1 -0 0 1 1 1 1 1 2 3 4 4 4 5 5 5 5 4 5 6 6 6 6 6 6 6 6 5 5 4 3 2 2 1 -0 -2 -3 -4 -5 -5 -7 -9
-1 -0 1 1 2 1 2 2 2 3 4 4 4 4 4 4 4 5 6 6 6 6 6 6 6 5 5 4 3 3 2 2 1 -0 -2 -5 -5 -5 -5 -4 -4 -6
-0 1 1 2 2 2 2 2 2 3 4 4 4 4 4 4 4 5 5 6 5 5 5 5 5 4 3 2 2 2 2 1 -0 -3 -6 -6 -6 -5 -4 -4 -5 -5
1 2 2 3 3 3 3 3 3 3 3 4 5 4 4 4 4 4 4 5 5 5 4 3 3 3 2 2 2 2 0 -2 -6 -11 -12 -9 -6 -6 -7 -7 -6 -6

ECMWFNIL_850_dewp_036.txt.gz
Dewpoint
1 3 1 1 2 -2 -5 -1 2 1 3 4 5 4 2 -2 -7 -7 -7 -8 -7 -7 -7 -7 -7 -6 -8 -7 -2 -3 -7 -8 -8 -9 -8 -9 -9 -10 -11 -14 -12 -3
0 2 -0 -0 3 3 -1 0 4 3 2 3 4 4 3 -0 -5 -7 -7 -7 -7 -7 -7 -6 -7 -7 -6 -7 -6 -6 -7 -7 -7 -7 -8 -8 -8 -9 -9 -11 -13 -6
2 4 2 -0 1 4 3 2 4 5 3 2 3 4 3 -0 -4 -6 -7 -7 -7 -7 -7 -7 -7 -6 -6 -6 -6 -6 -6 -6 -6 -6 -7 -8 -8 -9 -9 -8 -10 -11
4 5 5 4 2 3 4 3 3 4 4 3 2 4 4 0 -4 -5 -5 -6 -7 -6 -7 -7 -6 -6 -6 -6 -6 -5 -5 -5 -6 -6 -6 -6 -7 -8 -8 -8 -8 -9
4 6 6 6 5 3 4 4 4 4 5 4 3 3 4 3 0 -3 -4 -4 -5 -5 -6 -6 -7 -7 -6 -6 -6 -5 -5 -5 -5 -5 -5 -5 -6 -6 -7 -8 -7 -8
5 6 7 7 6 5 5 5 6 5 5 5 4 4 4 4 4 2 0 -2 -3 -3 -3 -3 -4 -5 -5 -6 -5 -5 -5 -5 -4 -5 -4 -3 -3 -4 -5 -7 -7 -8
7 7 8 8 7 6 6 5 6 6 5 5 5 4 5 5 5 5 4 2 1 1 0 0 -1 -1 -2 -3 -3 -4 -4 -3 -3 -4 -2 -1 -1 -2 -3 -4 -5 -6
8 8 8 8 6 5 5 5 5 6 6 5 5 5 5 5 5 6 6 5 5 5 4 4 3 3 2 1 1 -0 -1 -0 -0 -2 -1 -0 1 -0 -2 -2 -3 -4
7 6 5 6 6 5 6 6 5 5 6 5 5 5 5 5 5 6 6 6 6 6 6 6 6 5 5 4 4 3 2 2 2 1 -0 0 2 1 -0 0 -0 -3
6 5 4 4 4 4 5 5 5 6 6 5 5 6 5 5 5 5 6 6 6 6 6 6 7 6 6 6 5 5 4 4 4 3 2 1 2 2 1 2 2 -1
6 5 3 4 4 5 4 4 5 6 5 4 3 4 5 5 4 4 5 6 6 6 6 6 6 6 6 6 6 6 5 5 5 5 4 3 3 2 2 2 2 1
7 6 5 5 4 4 4 4 5 6 5 5 4 4 4 5 4 3 4 6 6 6 6 6 6 6 6 6 5 5 5 5 5 5 5 4 4 3 3 2 2 1
7 7 7 6 5 5 5 6 7 7 6 6 6 6 6 5 4 4 5 6 7 6 5 6 6 6 6 5 5 5 5 5 5 5 5 4 4 4 3 3 2 1
3 2 2 3 4 5 5 7 8 8 7 5 5 7 8 7 6 6 7 6 6 5 6 6 6 6 6 6 5 5 5 5 5 5 5 4 4 4 4 3 2 2
1 1 -0 -2 -2 -0 2 3 3 4 5 5 6 7 8 8 8 8 8 7 6 6 7 6 6 6 6 5 6 6 5 5 5 5 5 4 4 4 3 3 3 2
-0 1 1 0 -0 1 2 2 2 3 4 5 5 6 8 8 8 8 8 8 8 7 8 7 6 6 6 6 6 6 6 5 6 5 5 4 4 4 4 3 3 2
-2 -1 -0 1 1 2 2 2 3 3 4 4 5 5 6 6 7 8 8 8 8 8 8 7 7 6 6 6 7 6 6 6 6 5 5 5 4 4 4 3 2 2
-3 -2 -2 -1 -0 0 1 1 1 2 2 3 4 5 5 5 5 7 7 7 8 8 8 7 7 7 7 7 7 6 6 6 6 5 5 5 4 4 3 3 2 1
-2 -2 -2 -2 -2 -1 -1 -0 0 1 1 2 3 3 4 5 5 5 5 5 4 4 6 6 5 5 6 7 7 7 7 6 6 5 5 5 4 4 3 2 2 1
-2 -2 -2 -2 -2 -2 -1 -1 -1 -0 0 1 2 2 3 4 5 5 5 4 2 3 5 5 4 3 5 6 7 8 7 6 6 5 5 5 4 4 3 2 2 2
-2 -1 -1 -1 -1 -1 -1 -1 -1 -1 -1 0 1 2 3 4 4 5 6 6 5 5 5 4 4 5 5 6 7 7 7 6 6 5 5 5 4 3 3 3 3 1
-2 -2 -1 -1 -0 -0 -0 -0 -0 -0 0 1 2 3 3 4 4 4 5 6 6 5 5 5 5 6 6 6 6 7 6 6 6 5 5 5 4 3 3 3 2 1
-2 -2 -2 -1 -0 0 0 1 1 1 1 2 2 3 3 4 4 4 5 5 5 4 4 5 6 6 6 7 7 6 6 6 5 5 4 4 4 3 3 2 0 -1
-2 -2 -2 -1 -1 0 1 1 1 1 2 2 2 3 3 4 4 4 4 5 5 4 4 5 6 7 7 6 6 6 6 5 4 4 4 3 3 2 1 -0 -2 -3
-1 -1 -0 -0 0 0 1 1 1 1 1 2 2 3 3 3 3 3 3 4 4 4 4 5 6 7 7 7 6 6 6 4 4 3 2 2 2 0 -1 -2 -3 -5
-0 0 1 1 1 2 2 2 2 2 2 2 3 3 3 3 3 3 4 4 4 4 5 6 6 6 6 6 6 6 5 4 3 2 2 2 1 -1 -2 -4 -7 -10

ECMWFNIL_850_dewp_042.txt.gz
Dewpoint
2 -0 -5 -10 -10 -9 -10 -9 -10 -10 -10 -10 -10 -10 -9 -9 -9 -9 -8 -8 -8 -8 -8 -7 -7 -7 -7 -8 -8 -8 -9 -10 -10 -10 -10 -11 -12 -12 -12 -10 -10 -11
4 4 1 -7 -10 -9 -10 -8 -8 -8 -7 -8 -8 -9 -9 -8 -8 -8 -7 -8 -8 -7 -7 -7 -7 -7 -7 -7 -7 -7 -7 -8 -9 -9 -9 -10 -11 -12 -13 -14 -14 -15
5 5 3 -4 -8 -8 -8 -6 -4 -3 -1 -2 -3 -4 -7 -7 -7 -8 -7 -7 -7 -7 -7 -7 -7 -7 -7 -6 -6 -6 -6 -7 -7 -8 -8 -9 -9 -10 -11 -12 -13 -14
5 6 4 -0 -2 -3 -5 -2 -1 -0 1 1 0 -0 -2 -3 -4 -5 -6 -6 -6 -7 -7 -7 -7 -7 -7 -7 -6 -6 -6 -6 -6 -6 -7 -7 -8 -8 -8 -10 -10 -11
5 6 5 2 2 0 -1 1 2 2 2 2 1 1 0 -2 -3 -3 -5 -5 -5 -5 -4 -4 -4 -4 -5 -5 -5 -6 -6 -6 -5 -5 -5 -6 -6 -6 -7 -7 -8 -8
5 5 4 3 4 3 1 2 3 4 4 3 2 1 1 0 -0 -1 -1 -2 -2 -3 -3 -2 -2 -2 -2 -2 -2 -3 -4 -4 -5 -5 -4 -4 -5 -5 -5 -6 -7 -7
5 5 5 4 5 5 4 4 4 4 5 4 3 2 2 2 3 3 3 3 2 1 -0 -0 -0 -0 0 0 0 0 0 -0 -1 -2 -3 -3 -3 -3 -3 -3 -4 -6
5 5 5 5 5 5 5 4 4 4 4 5 4 4 4 4 4 4 4 5 4 4 3 3 3 3 3 3 2 2 2 3 3 2 0 -1 -1 -2 -1 -1 -1 -2
6 5 6 6 5 4 5 5 4 4 5 5 5 5 5 5 5 5 5 5 5 4 4 4 5 5 5 5 5 4 4 4 5 4 3 2 1 0 0 0 0 0
6 5 5 5 5 4 5 6 5 5 5 5 6 5 5 5 5 5 5 5 5 5 5 5 6 5 5 6 6 6 5 5 5 5 5 4 3 3 2 2 1 1
7 6 6 6 5 5 6 4 3 4 5 6 6 6 6 6 5 5 5 5 5 5 5 6 6 6 6 6 6 6 6 6 6 6 6 5 5 4 4 4 3 2
7 7 7 7 6 7 6 4 2 3 6 7 7 7 6 6 5 4 5 5 5 6 6 6 6 6 6 6 6 6 7 7 7 6 6 6 6 5 5 5 4 3
7 6 5 5 5 6 6 6 5 5 6 7 7 6 6 6 5 5 5 6 6 6 6 6 6 6 6 6 6 6 6 7 7 7 6 6 6 5 5 5 5 4
7 7 6 6 6 6 6 7 7 6 6 6 6 6 6 6 5 5 5 6 6 5 5 6 6 6 6 6 6 6 6 7 7 7 6 6 6 6 5 5 5 5
5 5 5 4 4 5 6 7 7 6 6 5 5 5 5 6 6 6 6 6 6 6 6 6 6 6 6 6 6 6 6 6 6 7 6 6 6 6 5 5 5 5
2 3 1 -1 -0 2 3 4 4 4 4 4 4 4 4 5 5 5 5 5 6 6 6 6 6 6 6 5 6 6 7 7 7 7 7 6 6 6 6 5 5 5
0 1 -0 -1 0 1 1 2 2 2 2 2 2 3 3 4 5 5 5 4 4 5 5 6 6 6 6 7 7 7 8 8 7 7 7 7 6 6 6 6 5 5
-2 -2 -2 -1 -0 0 -0 0 1 1 1 1 1 2 2 3 4 5 5 5 5 5 4 4 4 5 6 8 8 9 8 8 8 8 7 7 7 7 6 6 5 5
-3 -2 -2 -2 -2 -2 -2 -1 -1 -1 -1 -1 -0 0 1 1 2 2 3 4 5 6 5 4 2 2 3 5 6 6 7 8 8 8 8 7 7 6 6 6 6 5
-3 -3 -3 -3 -3 -3 -2 -2 -2 -2 -2 -1 -1 -1 -0 0 1 1 2 2 3 5 5 5 3 1 1 1 1 2 4 6 7 7 7 7 7 6 6 6 5 5
-4 -4 -4 -4 -4 -5 -5 -4 -4 -4 -4 -4 -3 -2 -1 -1 -1 -1 0 1 2 3 4 5 4 3 2 1 1 2 3 4 5 6 6 7 7 6 6 5 5 5
-4 -4 -3 -3 -2 -3 -4 -5 -5 -5 -6 -6 -6 -6 -5 -5 -5 -4 -4 -3 0 2 3 4 5 4 4 4 3 3 3 3 4 5 6 6 6 6 5 5 5 4
-3 -3 -3 -3 -2 -2 -3 -3 -4 -4 -4 -4 -4 -4 -5 -7 -9 -9 -10 -8 -4 0 2 3 4 5 5 5 4 4 4 4 5 6 6 6 5 5 5 5 4 4
-4 -3 -3 -2 -3 -3 -2 -2 -2 -1 -0 -1 -1 -0 -1 -3 -6 -7 -7 -8 -6 -1 2 3 3 4 4 4 4 4 4 4 4 5 5 5 5 5 5 4 4 4
-6 -4 -3 -3 -3 -3 -2 -2 -2 -1 -1 -1 -1 -1 -1 -3 -4 -5 -4 -4 -2 1 2 3 3 3 4 4 4 4 4 4 4 4 4 4 5 5 5 4 4 3
-4 -4 -4 -3 -3 -3 -2 -2 -2 -2 -2 -2 -2 -2 -3 -3 -3 -3 -3 -1 1 2 3 3 3 4 4 4 4 5 4 4 4 4 3 3 4 4 4 4 4 3

ECMWFNIL_850_dewp_045.txt.gz
Dewpoint
3 -5 -10 -11 -11 -11 -11 -13 -14 -12 -12 -12 -11 -11 -10 -10 -10 -9 -9 -9 -8 -9 -9 -9 -9 -9 -9 -9 -9 -9 -10 -11 -10 -11 -11 -12 -13 -13 -13 -12 -11 -12
0 -5 -8 -11 -11 -10 -11 -12 -12 -12 -11 -11 -10 -10 -10 -9 -9 -9 -8 -9 -8 -8 -8 -8 -8 -8 -7 -7 -8 -8 -8 -9 -9 -10 -10 -11 -12 -13 -14 -14 -14 -15
-2 -2 -4 -10 -10 -10 -11 -10 -11 -10 -9 -10 -9 -9 -9 -9 -8 -8 -8 -8 -7 -7 -7 -7 -7 -7 -7 -7 -7 -7 -7 -7 -7 -8 -8 -9 -10 -11 -11 -12 -13 -14
1 2 1 -2 -6 -10 -10 -9 -10 -9 -8 -8 -8 -8 -8 -8 -8 -8 -8 -7 -7 -7 -7 -7 -7 -7 -6 -6 -6 -7 -6 -6 -6 -7 -7 -7 -8 -8 -9 -10 -11 -12
2 2 4 4 0 -7 -10 -8 -7 -6 -5 -3 -3 -4 -4 -5 -6 -6 -6 -6 -6 -6 -6 -6 -6 -6 -6 -5 -6 -6 -6 -6 -6 -6 -6 -6 -7 -7 -8 -8 -8 -9
2 3 5 6 3 -2 -6 -6 -4 -3 -2 0 1 1 -0 -2 -2 -2 -3 -3 -3 -4 -3 -3 -3 -3 -3 -3 -3 -4 -4 -5 -5 -5 -6 -5 -5 -6 -6 -7 -8 -8
4 5 6 6 5 2 -0 -1 -1 1 1 2 3 3 2 1 1 1 1 1 1 1 1 1 -0 -1 -1 -1 -1 -1 -0 -0 -1 -2 -3 -4 -5 -5 -5 -5 -5 -6
5 6 6 5 5 4 3 3 2 3 4 4 4 4 4 4 3 3 3 4 4 4 4 4 3 3 2 2 2 2 2 3 3 3 2 0 -1 -2 -3 -3 -3 -3
6 6 6 5 5 5 5 4 4 4 5 5 5 4 5 5 4 4 4 5 4 4 5 5 5 4 4 4 5 4 5 5 5 5 5 4 2 1 0 -0 -1 -1
6 6 6 5 5 5 4 5 5 5 5 5 5 5 5 4 4 4 5 5 5 5 5 5 5 5 5 5 5 6 6 6 6 6 6 5 5 4 3 3 3 2
6 6 5 5 5 4 4 5 5 5 5 4 4 4 3 2 3 4 5 5 5 5 5 6 5 5 6 6 6 6 6 6 6 6 6 6 6 5 5 4 4 4
6 6 6 6 5 5 5 5 5 5 5 5 4 3 1 1 3 5 5 5 5 6 6 6 6 6 7 7 7 6 6 6 7 6 6 6 6 6 6 5 5 5
8 7 6 6 5 5 6 5 4 4 4 5 5 4 2 3 4 5 6 5 5 5 6 6 7 7 7 7 7 7 7 7 7 7 7 7 7 7 6 6 6 5
7 6 6 7 6 6 5 5 4 4 4 5 5 5 4 4 5 5 6 6 5 5 5 6 7 7 7 6 6 7 7 6 6 7 7 7 7 7 6 6 6 5
5 5 5 5 5 4 4 5 5 5 5 5 5 5 5 5 5 5 5 5 5 5 6 7 7 7 6 6 6 6 6 6 6 6 7 7 7 7 7 6 6 6
4 4 4 3 3 3 5 6 6 7 7 6 6 6 5 4 5 5 5 4 5 6 7 7 7 7 7 7 7 7 7 7 7 7 7 7 7 7 7 7 6 6
3 3 2 1 2 3 3 4 5 5 5 5 5 5 5 5 5 6 5 6 6 7 7 6 6 6 7 7 7 7 7 7 7 7 8 8 7 7 7 7 7 6
1 1 0 -1 -0 1 1 1 2 2 2 2 2 3 3 3 4 4 5 5 6 6 6 6 5 4 4 5 5 5 6 7 7 7 7 8 8 8 8 7 7 7
-2 -1 -2 -2 -1 -0 -0 -0 -0 -0 0 0 0 0 1 1 1 1 2 2 3 4 5 5 5 5 5 4 4 3 4 5 5 6 6 7 8 8 7 7 7 7
-3 -2 -2 -2 -2 -2 -2 -2 -2 -1 -1 -2 -1 -1 -1 -1 -1 -1 -0 0 1 2 3 3 4 6 6 5 4 4 4 4 4 4 4 5 6 7 7 7 6 6
-3 -3 -3 -3 -3 -3 -3 -3 -3 -3 -3 -3 -3 -3 -3 -3 -4 -3 -3 -2 -2 -1 1 2 3 5 5 5 5 5 5 4 4 3 3 4 5 6 6 6 6 6
-4 -4 -4 -4 -4 -3 -3 -3 -4 -5 -5 -5 -6 -6 -7 -7 -8 -8 -7 -7 -6 -6 -4 -1 2 3 4 4 5 5 5 5 4 3 3 3 4 5 5 5 5 5
-4 -4 -4 -4 -3 -2 -2 -2 -3 -3 -4 -5 -5 -6 -6 -7 -7 -7 -7 -7 -6 -6 -6 -4 -1 1 2 3 4 4 4 4 4 3 2 2 3 4 4 5 5 5
-3 -3 -3 -3 -3 -3 -2 -2 -2 -2 -2 -2 -2 -2 -2 -2 -2 -2 -3 -4 -4 -5 -6 -5 -2 0 2 3 3 4 4 4 4 3 2 2 2 3 4 5 5 4
-4 -4 -4 -3 -3 -3 -3 -2 -2 -2 -2 -2 -2 -2 -2 -2 -2 -2 -2 -3 -5 -7 -8 -5 -1 1 2 3 3 4 4 4 4 4 3 3 2 2 3 4 4 4
-5 -5 -5 -5 -5 -5 -5 -4 -4 -4 -3 -3 -2 -2 -1 -1 -1 -1 -1 -1 -3 -5 -6 -4 -1 1 3 3 3 4 4 5 4 4 3 3 3 3 2 2 3 4

ECMWFNIL_850_dewp_048.txt.gz
Dewpoint
6 6 6 5 -1 -10 -12 -12 -13 -12 -12 -11 -11 -12 -10 -10 -10 -9 -9 -8 -8 -9 -8 -8 -8 -8 -9 -9 -10 -10 -10 -11 -11 -12 -13 -14 -14 -13 -13 -14 -14 -15
6 6 6 5 -1 -10 -12 -11 -12 -12 -12 -11 -11 -11 -10 -10 -9 -9 -9 -8 -8 -8 -8 -8 -7 -7 -7 -7 -8 -8 -8 -9 -10 -10 -11 -12 -13 -13 -14 -14 -14 -15
6 6 6 4 -2 -9 -12 -12 -12 -11 -11 -10 -10 -10 -10 -9 -9 -8 -8 -7 -8 -7 -7 -7 -6 -6 -6 -6 -7 -7 -7 -8 -8 -8 -9 -9 -10 -11 -11 -12 -12 -13
6 7 6 3 -3 -9 -11 -12 -12 -11 -11 -10 -10 -9 -9 -9 -8 -8 -8 -7 -7 -7 -7 -6 -6 -6 -6 -6 -6 -6 -6 -7 -6 -7 -7 -7 -8 -8 -8 -9 -9 -10
6 7 5 1 -3 -8 -11 -11 -10 -10 -9 -9 -9 -8 -8 -8 -8 -7 -7 -7 -6 -7 -6 -6 -6 -5 -5 -5 -5 -5 -6 -6 -6 -6 -6 -6 -7 -7 -8 -8 -8 -8
6 6 2 -0 1 -2 -8 -10 -10 -10 -9 -8 -8 -8 -6 -6 -5 -4 -4 -3 -2 -2 -2 -2 -1 -1 -2 -2 -2 -2 -3 -4 -4 -4 -5 -5 -6 -6 -7 -7 -8 -8
6 5 1 1 5 4 -1 -7 -9 -9 -7 -6 -4 -5 -3 -1 -0 1 2 2 2 3 3 3 3 3 3 2 2 2 2 1 0 -0 -1 -2 -3 -4 -4 -5 -5 -6
6 5 1 2 5 6 2 -3 -7 -6 -3 -1 -1 -1 -0 1 2 4 4 4 4 4 4 5 5 5 5 5 5 4 4 4 4 4 4 3 1 -0 -1 -2 -2 -3
6 5 3 3 5 6 4 0 -1 -1 -0 2 2 2 3 4 4 5 5 4 4 4 4 5 5 5 5 5 6 5 5 5 5 6 5 5 4 3 2 1 1 0
6 5 4 4 4 5 5 3 3 2 1 3 4 4 5 5 4 4 3 2 3 4 5 5 5 5 5 5 6 6 6 6 6 6 6 6 6 5 5 4 4 3
6 4 4 4 4 4 5 5 5 4 4 4 5 5 5 2 2 3 2 1 2 4 5 5 4 4 5 5 6 6 6 6 6 6 6 6 6 6 6 6 5 5
5 2 4 5 4 4 5 5 5 5 5 5 5 5 3 1 2 4 4 2 2 3 4 5 5 5 5 5 5 6 6 6 6 6 6 7 7 7 6 6 6 5
5 3 5 6 5 5 5 5 5 5 5 6 6 5 4 4 5 5 3 2 2 3 4 5 5 5 5 4 4 5 5 5 5 6 6 7 7 7 7 7 6 6
5 5 6 6 6 5 5 6 6 6 6 6 6 6 6 5 5 5 3 3 4 3 3 4 5 5 5 5 5 5 5 4 5 6 6 6 6 6 7 7 7 6
7 7 7 6 6 6 6 6 6 6 6 6 6 6 6 5 5 5 4 4 5 5 4 4 5 5 5 5 5 6 6 5 6 7 7 6 6 6 6 6 6 7
7 8 7 7 6 6 6 6 6 5 5 5 5 5 5 5 5 5 5 4 5 4 4 5 5 5 6 6 6 6 7 7 7 7 7 7 7 6 6 6 6 7
6 6 6 6 6 5 4 4 4 4 4 4 4 4 5 5 4 4 4 4 4 4 4 5 6 6 6 5 5 4 5 6 7 7 7 7 7 7 7 7 7 7
4 3 3 2 2 2 1 1 2 3 4 4 4 3 3 3 3 3 2 3 3 3 4 5 5 5 5 4 4 3 3 4 5 5 5 6 6 7 7 7 7 7
1 0 -1 -1 -1 -0 -0 0 0 1 2 2 1 1 1 1 1 1 1 1 1 1 2 3 4 5 6 6 6 4 3 3 3 3 3 3 3 4 5 6 7 7
-1 -1 -2 -2 -2 -1 -0 -1 -1 -1 -0 -0 -0 -0 -0 -0 -0 -1 -1 -1 -1 -0 0 1 2 4 6 7 6 5 4 3 3 3 2 2 1 1 2 3 4 5
-3 -2 -2 -2 -2 -2 -2 -2 -2 -2 -2 -2 -2 -2 -2 -2 -3 -3 -3 -3 -3 -3 -3 -3 -2 0 3 5 6 5 4 4 3 3 2 1 1 0 0 1 2 4
-3 -3 -3 -3 -3 -3 -3 -3 -3 -3 -3 -4 -4 -4 -4 -4 -5 -4 -4 -4 -4 -5 -6 -7 -7 -6 -2 2 3 4 3 3 3 2 2 1 0 0 1 2 3 4
-3 -3 -3 -3 -3 -3 -2 -2 -2 -2 -3 -3 -3 -2 -2 -2 -1 -1 -1 -1 -2 -3 -5 -7 -9 -9 -6 -1 1 2 2 3 2 2 2 2 1 0 0 1 3 3
-3 -3 -3 -3 -3 -2 -2 -2 -2 -2 -2 -2 -2 -1 -1 -0 -1 -1 -1 -1 -2 -3 -4 -6 -9 -10 -7 -3 0 1 2 3 3 3 3 3 2 1 0 1 2 2
-3 -3 -3 -3 -3 -2 -2 -2 -2 -2 -2 -2 -2 -2 -2 -2 -1 -1 -1 -1 -2 -3 -4 -6 -8 -8 -5 -1 1 2 2 3 3 4 3 2 2 2 2 2 2 2
-3 -4 -4 -4 -4 -3 -3 -3 -4 -4 -4 -4 -4 -3 -2 -2 -1 -0 -0 -1 -1 -2 -4 -6 -6 -4 -2 1 2 2 3 4 4 4 3 2 2 2 3 3 3 2